星链-36031(STARLINK-36031)

导读

STARLINK-36031是美国于2025年11月22日发射的星链卫星,隶属于SpaceX公司的星链星座项目。星链计划旨在构建全球卫星互联网星座,为全球各地用户提供低延迟、高速率的宽带网络服务,该卫星入轨后将进一步扩充星链星座的规模,推进全球覆盖布局。

Basic Information
目录编号:
66593
目录名称:
STARLINK-36031
国际标识:
2025-270F
轨道中心:
EARTH
卫星名称:
星链-36031
卫星全名:
星链-36031(STARLINK-36031)
卫星状态:
在轨 (已飞行286 天)
发射日期:
2025-11-22 UTC
国别 :
美国 (US)
星等 :
--
Orbit Information
数据来源 国际轨道数据
星历时间: 2026-09-04T08:49:40+0800
7小时前
查看轨道信息
半长轴: 6861.155km
偏心率: 0.000048
轨道倾角: 42.995°
近地点辐角 239.645°
升交点赤经 128.786°
平近点角 120.436°
近地点: 482.688km
远地点: 483.348km
周期: 94.266分钟
每日圈数: 15.275904
Detailed Information
固有亮度:
5
最大亮度:
2.5
卫星平台:
Starlink V1.0
覆盖范围:
全球
运营商:
太空探索技术公司
运营商所在国:
美国
制造商(研发单位):
太空探索技术公司
制造商所在国:
美国
使用方式:
暂无
Satellite Introduction
Starlink 计划是 SpaceX 推出的全球卫星互联网项目,通过发射低轨道卫星,为全球尤其是偏远地区提供高速、低延迟的互联网服务。自 2019 年起,Starlink 已部署数千颗卫星,旨在缩小全球数字鸿沟,推动互联网普及。该项目还为军事、航空等行业提供通信支持,带来广泛经济效益。
2D Orbit Map
3D Orbit Map
Orbit Altitude Analysis Chart
Orbit Inclination Analysis Chart
Orbit Comprehensive Analysis Chart
View Comprehensive Chart
Conjunction Data List
Event ID Objects TCA Miss Dist (km) Collision Risk Probability Collision Risk Index (CRI) Action
CDM_260904-203905-537706-659322
2026-09-04T
20:39:33+0000
0.369 km
远距离
2.694874E-4 高风险 0.84
CDM_260904-221305-537706-659321
2026-09-04T
22:13:42+0000
1.620 km
极远距离
3.430998E-6 低风险 0.46
CDM_260904-234705-537706-659321
2026-09-04T
23:47:51+0000
2.936 km
极远距离
9.582452E-7 极低风险 0.35